• în România
  • Lista ţărilor
  • Pe 7 zile
  • Temperatura apei
  • Hartă satelitară
  • Meteo pe hartă
  • Widget-uri
  • user-avatar
    Intrare

    Meteo pe oră la Petah Tiqwa

    Astăzi, 23 Ianuarie, Marţi

    Timp Temperatura Precipitaţii Vânt Presiune Umiditate
    00:00 +14°C° 0,3 mm 7 m/s 751 mmHg 54%
    01:00 +13°C° 0,3 mm 8 m/s 751 mmHg 58%
    02:00 +13°C° 0 mm 9 m/s 750 mmHg 58%
    03:00 +13°C° 0,8 mm 9 m/s 751 mmHg 63%
    04:00 +13°C° 0,8 mm 9 m/s 751 mmHg 68%
    05:00 +13°C° 0,8 mm 9 m/s 751 mmHg 72%
    06:00 +13°C° 0,6 mm 9 m/s 751 mmHg 73%
    07:00 +13°C° 0,6 mm 9 m/s 752 mmHg 73%
    08:00 +13°C° 0 mm 8 m/s 751 mmHg 74%
    09:00 +15°C° 0,4 mm 9 m/s 752 mmHg 70%
    10:00 +16°C° 0,4 mm 9 m/s 752 mmHg 67%
    11:00 +16°C° 0,4 mm 10 m/s 753 mmHg 64%
    12:00 +16°C° 0,4 mm 9 m/s 753 mmHg 64%
    13:00 +16°C° 0,4 mm 9 m/s 753 mmHg 65%
    14:00 +17°C° 0 mm 8 m/s 752 mmHg 63%
    15:00 +16°C° 0,2 mm 8 m/s 753 mmHg 66%
    16:00 +15°C° 0,2 mm 7 m/s 753 mmHg 69%
    17:00 +15°C° 0,2 mm 6 m/s 753 mmHg 72%
    18:00 +15°C° 0,2 mm 5 m/s 754 mmHg 74%
    19:00 +14°C° 0,2 mm 5 m/s 754 mmHg 76%
    20:00 +14°C° 0,2 mm 4 m/s 754 mmHg 77%
    21:00 +14°C° 0,2 mm 4 m/s 754 mmHg 78%
    22:00 +14°C° 0,2 mm 3 m/s 754 mmHg 79%
    23:00 +13°C° 0,2 mm 3 m/s 754 mmHg 79%

    Mâine, 24 Ianuarie, Miercuri

    Timp Temperatura Precipitaţii Vânt Presiune Umiditate
    00:00 +13°C° 0,2 mm 3 m/s 754 mmHg 80%
    01:00 +13°C° 0,2 mm 3 m/s 754 mmHg 80%
    02:00 +13°C° 0,2 mm 3 m/s 755 mmHg 80%
    03:00 +13°C° 0,3 mm 3 m/s 754 mmHg 80%
    04:00 +13°C° 0,3 mm 3 m/s 754 mmHg 80%
    05:00 +13°C° 0,3 mm 3 m/s 754 mmHg 80%
    06:00 +13°C° 0,4 mm 3 m/s 755 mmHg 79%
    07:00 +13°C° 0,4 mm 3 m/s 755 mmHg 77%
    08:00 +13°C° 0,4 mm 3 m/s 755 mmHg 75%
    09:00 +14°C° 0,4 mm 3 m/s 755 mmHg 73%
    10:00 +14°C° 0,4 mm 3 m/s 755 mmHg 70%
    11:00 +15°C° 0,4 mm 4 m/s 755 mmHg 67%
    12:00 +15°C° 0,4 mm 4 m/s 755 mmHg 67%
    13:00 +16°C° 0,4 mm 3 m/s 754 mmHg 66%
    14:00 +17°C° 0,4 mm 3 m/s 754 mmHg 66%
    15:00 +16°C° 0,5 mm 3 m/s 754 mmHg 69%
    16:00 +16°C° 0,5 mm 2 m/s 754 mmHg 72%
    17:00 +15°C° 0,5 mm 2 m/s 754 mmHg 75%
    18:00 +14°C° 0,6 mm 1 m/s 754 mmHg 78%
    19:00 +14°C° 0,6 mm 1 m/s 754 mmHg 82%
    20:00 +13°C° 0,6 mm 1 m/s 754 mmHg 85%
    21:00 +13°C° 0,4 mm 1 m/s 754 mmHg 84%
    22:00 +13°C° 0,4 mm 1 m/s 754 mmHg 84%
    23:00 +13°C° 0,4 mm 1 m/s 754 mmHg 83%

    Poimâine, 25 Ianuarie, Joi

    Timp Temperatura Precipitaţii Vânt Presiune Umiditate
    00:00 +13°C° 0,6 mm 2 m/s 754 mmHg 83%
    01:00 +13°C° 0,6 mm 2 m/s 754 mmHg 83%
    02:00 +13°C° 0,6 mm 2 m/s 754 mmHg 83%
    03:00 +13°C° 1,3 mm 2 m/s 753 mmHg 84%
    04:00 +13°C° 1,3 mm 2 m/s 753 mmHg 85%
    05:00 +12°C° 1,3 mm 3 m/s 752 mmHg 86%
    06:00 +12°C° 2,8 mm 3 m/s 752 mmHg 86%
    07:00 +12°C° 2,8 mm 4 m/s 752 mmHg 86%
    08:00 +12°C° 2,8 mm 4 m/s 753 mmHg 86%
    09:00 +12°C° 2,6 mm 5 m/s 753 mmHg 85%
    10:00 +11°C° 2,6 mm 6 m/s 753 mmHg 83%
    11:00 +11°C° 2,6 mm 7 m/s 753 mmHg 82%
    12:00 +11°C° 1,1 mm 8 m/s 752 mmHg 79%
    13:00 +12°C° 1,1 mm 9 m/s 752 mmHg 76%
    14:00 +12°C° 1,1 mm 9 m/s 751 mmHg 73%
    15:00 +12°C° 0,6 mm 9 m/s 751 mmHg 72%
    16:00 +12°C° 0,6 mm 8 m/s 752 mmHg 72%
    17:00 +12°C° 0,6 mm 8 m/s 752 mmHg 71%
    18:00 +11°C° 0,8 mm 8 m/s 752 mmHg 72%
    19:00 +11°C° 0,8 mm 9 m/s 752 mmHg 72%
    20:00 +11°C° 0,8 mm 9 m/s 752 mmHg 73%
    21:00 +11°C° 0,2 mm 9 m/s 753 mmHg 72%
    22:00 +9°C° 0,2 mm 10 m/s 753 mmHg 71%
    23:00 +9°C° 0,2 mm 10 m/s 753 mmHg 69%

    26 Ianuarie, Vineri

    Timp Temperatura Precipitaţii Vânt Presiune Umiditate
    00:00 +8°C° 0,1 mm 10 m/s 753 mmHg 70%
    01:00 +8°C° 0,1 mm 10 m/s 753 mmHg 70%
    02:00 +7°C° 0,1 mm 10 m/s 753 mmHg 70%
    03:00 +7°C° 0,3 mm 10 m/s 753 mmHg 71%
    04:00 +7°C° 0,3 mm 10 m/s 753 mmHg 71%
    05:00 +7°C° 0,3 mm 9 m/s 753 mmHg 72%
    06:00 +7°C° 0,6 mm 10 m/s 753 mmHg 71%
    07:00 +7°C° 0,6 mm 10 m/s 753 mmHg 71%
    08:00 +7°C° 0,6 mm 11 m/s 754 mmHg 70%
    09:00 +8°C° 0,6 mm 11 m/s 754 mmHg 68%
    10:00 +8°C° 0,6 mm 11 m/s 754 mmHg 67%
    11:00 +9°C° 0,6 mm 12 m/s 754 mmHg 65%
    12:00 +9°C° 0,8 mm 11 m/s 754 mmHg 65%
    13:00 +9°C° 0,8 mm 10 m/s 754 mmHg 66%
    14:00 +10°C° 0,8 mm 9 m/s 753 mmHg 67%
    15:00 +10°C° 1 mm 8 m/s 754 mmHg 70%
    16:00 +10°C° 1 mm 8 m/s 754 mmHg 73%
    17:00 +10°C° 1 mm 7 m/s 754 mmHg 76%
    18:00 +9°C° 1,1 mm 6 m/s 754 mmHg 78%
    19:00 +9°C° 1,1 mm 6 m/s 755 mmHg 80%
    20:00 +9°C° 1,1 mm 5 m/s 755 mmHg 82%
    21:00 +9°C° 0,8 mm 5 m/s 755 mmHg 82%
    22:00 +9°C° 0,8 mm 5 m/s 756 mmHg 82%
    23:00 +9°C° 0,8 mm 5 m/s 756 mmHg 82%

    27 Ianuarie, Sâmbătă

    Timp Temperatura Precipitaţii Vânt Presiune Umiditate
    00:00 +9°C° 0,6 mm 5 m/s 756 mmHg 82%
    01:00 +9°C° 0,6 mm 5 m/s 756 mmHg 83%
    02:00 +9°C° 0,6 mm 5 m/s 756 mmHg 84%
    03:00 +9°C° 0,4 mm 5 m/s 756 mmHg 84%
    04:00 +10°C° 0,4 mm 4 m/s 756 mmHg 85%
    05:00 +10°C° 0,4 mm 4 m/s 756 mmHg 86%
    06:00 +10°C° 0,3 mm 4 m/s 757 mmHg 85%
    07:00 +11°C° 0,3 mm 4 m/s 758 mmHg 85%
    08:00 +11°C° 0,3 mm 4 m/s 758 mmHg 84%
    09:00 +12°C° 0,1 mm 4 m/s 759 mmHg 80%
    10:00 +13°C° 0,1 mm 4 m/s 759 mmHg 75%
    11:00 +14°C° 0,1 mm 3 m/s 759 mmHg 71%
    12:00 +14°C° 0,1 mm 4 m/s 759 mmHg 69%
    13:00 +14°C° 0,1 mm 4 m/s 759 mmHg 67%
    14:00 +15°C° 0,1 mm 4 m/s 759 mmHg 65%
    15:00 +14°C° 0,1 mm 4 m/s 759 mmHg 67%
    16:00 +14°C° 0,1 mm 4 m/s 759 mmHg 68%
    17:00 +13°C° 0,1 mm 3 m/s 759 mmHg 70%
    18:00 +13°C° 0,1 mm 3 m/s 760 mmHg 72%
    19:00 +12°C° 0,1 mm 3 m/s 760 mmHg 74%
    20:00 +12°C° 0,1 mm 3 m/s 761 mmHg 77%
    21:00 +12°C° 0,1 mm 3 m/s 761 mmHg 77%
    22:00 +12°C° 0,1 mm 3 m/s 761 mmHg 78%
    23:00 +12°C° 0,1 mm 3 m/s 761 mmHg 79%

    28 Ianuarie, Duminică

    Timp Temperatura Precipitaţii Vânt Presiune Umiditate
    00:00 +11°C° 0,1 mm 3 m/s 761 mmHg 80%
    01:00 +11°C° 0,1 mm 3 m/s 761 mmHg 80%
    02:00 +11°C° 0,1 mm 3 m/s 761 mmHg 81%
    03:00 +12°C° 0,1 mm 2 m/s 761 mmHg 81%
    04:00 +12°C° 0,1 mm 2 m/s 761 mmHg 81%
    05:00 +12°C° 0,1 mm 2 m/s 761 mmHg 81%
    06:00 +12°C° 0,1 mm 2 m/s 761 mmHg 79%
    07:00 +13°C° 0,1 mm 2 m/s 762 mmHg 78%
    08:00 +13°C° 0,1 mm 2 m/s 762 mmHg 76%
    09:00 +14°C° 0,1 mm 2 m/s 762 mmHg 72%
    10:00 +15°C° 0,1 mm 2 m/s 762 mmHg 68%
    11:00 +15°C° 0,1 mm 2 m/s 763 mmHg 64%
    12:00 +15°C° 0,1 mm 2 m/s 762 mmHg 63%
    13:00 +16°C° 0,1 mm 2 m/s 762 mmHg 63%
    14:00 +16°C° 0,1 mm 3 m/s 761 mmHg 63%
    15:00 +15°C° 0 mm 2 m/s 762 mmHg 65%
    16:00 +15°C° 0 mm 2 m/s 762 mmHg 68%
    17:00 +14°C° 0 mm 2 m/s 762 mmHg 71%
    18:00 +14°C° 0 mm 1 m/s 762 mmHg 73%
    19:00 +13°C° 0 mm 1 m/s 762 mmHg 75%
    20:00 +13°C° 0 mm 1 m/s 762 mmHg 78%
    21:00 +12°C° 0 mm 1 m/s 762 mmHg 78%
    22:00 +12°C° 0 mm 1 m/s 762 mmHg 79%
    23:00 +12°C° 0 mm 1 m/s 762 mmHg 79%
    Arată mai mult